Weather in Brichani

Moldova     48˚21′36″N   27˚05′05″E
temp.,
°C
wind,
m/s
gust,
m/s
humid.,
%
clouds,
%
prec.,
mm/h
press.,
hPa
HPBL,
m
28 november, sat
sat2823:00+2˚nw2380100 0.0 102268
02:00+2˚nw1289100 0.0 102135
05:00+3˚wnw1292100 0.0 102061
08:00+3˚nw3597100 0.4 1020272
11:00+4˚wnw3483100 0.1 1020512
14:00+4˚wnw3375100 0.1 1019625
17:00+2˚wnw3495100 0.2 1019277
20:00+2˚wnw3487100 0.3 1019330
29 november, sun
sun2923:00+1˚wnw239673 0.0 1020120
02:00nw229085 0.0 102097
05:00−1˚wnw119189 0.0 102022
08:00w129075 0.0 102145
11:00+2˚wnw227599 0.0 1020433
14:00+2˚nw217899 0.0 1020425
17:00n1296100 0.3 1021119
20:00ese119595 0.3 1022124
30 november, mon
mon3023:00w119386 0.0 1023147
02:00−1˚nnw128993 0.0 1024265
05:00−1˚n239093 0.0 1024155
08:00−2˚nnw229060 0.0 102673
11:00+1˚nnw34680 0.0 1027523
14:00+2˚nnw45640 0.0 1027746
17:00nnw35760 0.0 1028161
20:00−2˚n36810 0.0 1029223
1 december, tue
tue123:00−2˚nnw35800 0.0 1030228
02:00−2˚nnw24800 0.0 1029168
05:00−3˚nnw23810 0.0 102978
08:00−3˚n22820 0.0 103048
11:00nne22690 0.0 1029419
14:00+1˚nne23610 0.0 1027593
17:00−2˚ne23740 0.0 102738
20:00−2˚ene23780 0.0 102879
2 december, wed
wed223:00−3˚ene22815 0.0 102860
02:00−3˚ene228621 0.0 102765
05:00−3˚ene239027 0.0 102786
08:00−3˚ne129251 0.0 1027101
11:00e228270 0.0 1027304
14:00+1˚se227974 0.0 1026462
17:00se2385100 0.0 1026117
20:00sse2387100 0.0 102799